This is the latest recevied weather packets stored in our database for station/object OH2EGI-2. If no packets are shown the sender has not sent any weather packets the latest 1 day(s).
| Time | Temp. | Humidity | Pressure | Rain* | Wind** | Luminosity | Snow |
|---|---|---|---|---|---|---|---|
| 1777982795 | 18.89° C | 32% | 995.8 hPa | 0 mm | 0 m/s | - | - |
| 1777982495 | 18.33° C | 33% | 995.8 hPa | 0 mm | 0 m/s | - | - |
| 1777982195 | 19.44° C | 33% | 995.8 hPa | 0 mm | 0 m/s | - | - |
| 1777981895 | 18.89° C | 33% | 995.6 hPa | 0 mm | 1.34 m/s, 270° | - | - |
| 1777981595 | 18.33° C | 33% | 995.6 hPa | 0 mm | 1.79 m/s, 270° | - | - |
| 1777981295 | 18.33° C | 33% | 995.6 hPa | 0 mm | 1.79 m/s, 315° | - | - |
| 1777980995 | 18.33° C | 32% | 995.5 hPa | 0 mm | 0 m/s | - | - |
| 1777980695 | 18.89° C | 33% | 995.3 hPa | 0 mm | 0 m/s | - | - |
| 1777980395 | 17.78° C | 33% | 995.3 hPa | 0 mm | 0 m/s | - | - |
| 1777980095 | 17.22° C | 34% | 995.2 hPa | 0 mm | 0 m/s | - | - |
| 1777979795 | 16.11° C | 34% | 995.2 hPa | 0 mm | 4.47 m/s, 337° | - | - |
| 1777979495 | 17.78° C | 34% | 995.2 hPa | 0 mm | 0 m/s | - | - |
| 1777979196 | 17.78° C | 32% | 995.2 hPa | 0 mm | 0 m/s | - | - |
| 1777978896 | 20° C | 32% | 994.9 hPa | 0 mm | 0.45 m/s, 292° | - | - |
| 1777978596 | 20° C | 32% | 994.9 hPa | 0 mm | 0 m/s | - | - |
| 1777978296 | 20° C | 34% | 994.8 hPa | 0 mm | 0 m/s | - | - |
| 1777977996 | 18.89° C | 35% | 994.8 hPa | 0 mm | 0 m/s | - | - |
| 1777977696 | 17.22° C | 37% | 994.7 hPa | 0 mm | 0 m/s | - | - |
| 1777977396 | 17.78° C | 36% | 994.7 hPa | 0 mm | 0 m/s | - | - |
| 1777977096 | 18.33° C | 36% | 994.5 hPa | 0 mm | 0 m/s | - | - |
| 1777976796 | 18.33° C | 38% | 994.4 hPa | 0 mm | 0 m/s | - | - |
| 1777976496 | 17.78° C | 39% | 994.4 hPa | 0 mm | 0 m/s | - | - |
| 1777976196 | 16.67° C | 38% | 994.4 hPa | 0 mm | 0 m/s | - | - |
| 1777975896 | 17.78° C | 36% | 994.2 hPa | 0 mm | 0 m/s | - | - |
| 1777975596 | 17.22° C | 38% | 994.2 hPa | 0 mm | 3.13 m/s, 315° | - | - |
* Rain latest hour (hover to see other rain measurements)
** Current wind speed in m/s (hover to see current wind gust speed)